Weather History for Cheraw, SC

Change the Weather History Date:

Saturday, February 2, 2013

  Actual Average (KFLO) Record (KFLO)
Temperature  
Mean Temperature 34 °F 46 °F  
Max Temperature 50 °F 57 °F 81 °F (1974)
Min Temperature 19 °F 36 °F 18 °F (1979)
Degree Days  
Heating Degree Days 30 19  
Month to date heating degree days 38  
Since 1 July heating degree days 1640  
Cooling Degree Days 0 0  
Month to date cooling degree days 0  
Year to date cooling degree days 2  
Moisture  
Dew Point 17 °F    
Average Humidity 55    
Maximum Humidity 93    
Minimum Humidity 20    
Precipitation  
Precipitation 0.01 in 0.11 in 2.78 in (1973)
Month to date precipitation 0.21  
Year to date precipitation 3.44  
Sea Level Pressure  
Sea Level Pressure 30.27 in    
Wind  
Wind Speed 6 mph (SSW)    
Max Wind Speed 34 mph    
Max Gust Speed 56 mph    
Visibility 10 miles    
Events Rain    
T = Trace of Precipitation, MM = Missing Value Source: NWS Daily Summary

Daily Weather History Graph

Daily Weather History Graph

Search for Another Location

Airport:

Trip Planner

Search our weather history database for the weather conditions in past years. The results will help you decide how hot, cold, wet, or windy it might be!

Date:

Astronomy

Feb. 02, 2013 Rise Set
Actual Time 7:17 AM EST 5:50 PM EST
Civil Twilight 6:50 AM EST 6:16 PM EST
Nautical Twilight 6:20 AM EST 6:46 PM EST
Astronomical Twilight 5:51 AM EST 7:16 PM EST
Moon No Moon Rise 10:45 AM EST (2/2)
Length of Visible Light 11h 26m
Length of Day
10h 33m
Waning Gibbous, 60% of the Moon is Illuminated
Feb 2
Waning Gibbous
Feb 3
Last Quarter
Feb 10
New
Feb 17
First Quarter
Feb 25
Full

Hourly Weather History & Observations

Time (EST) Temp. Windchill Dew Point Humidity Pressure Visibility Wind Dir Wind Speed Gust Speed Precip Events Conditions
12:15 AM 23.0 °F 17.0 °F 17.6 °F 80% 30.38 in 10.0 mi NE 4.6 mph - N/A   Clear
12:35 AM 24.8 °F 20.5 °F 17.6 °F 74% 30.38 in 10.0 mi NNE 3.5 mph - N/A   Clear
12:55 AM 26.6 °F - 14.0 °F 59% 30.39 in 10.0 mi Calm Calm - N/A   Clear
1:15 AM 26.6 °F - 14.0 °F 59% 30.39 in 10.0 mi Calm Calm - N/A   Clear
1:35 AM 26.6 °F - 14.0 °F 59% 30.39 in 10.0 mi Calm Calm - N/A   Clear
1:55 AM 24.8 °F 20.5 °F 14.0 °F 64% 30.38 in 10.0 mi NNE 3.5 mph - N/A   Clear
2:15 AM 24.8 °F - 14.0 °F 64% 30.38 in 10.0 mi Calm Calm - N/A   Clear
2:35 AM 23.0 °F - 14.0 °F 68% 30.39 in 10.0 mi Calm Calm - N/A   Clear
2:55 AM 24.8 °F - 14.0 °F 64% 30.38 in 10.0 mi Calm Calm - N/A   Clear
3:15 AM 23.0 °F - 14.0 °F 68% 30.39 in 10.0 mi Calm Calm - N/A   Clear
3:35 AM 23.0 °F - 14.0 °F 68% 30.40 in 10.0 mi Calm Calm - N/A   Clear
3:55 AM 21.2 °F - 14.0 °F 74% 30.39 in 10.0 mi Calm Calm - N/A   Clear
4:15 AM 23.0 °F - 14.0 °F 68% 30.39 in 10.0 mi Calm Calm - N/A   Clear
4:35 AM 23.0 °F - 14.0 °F 68% 30.39 in 10.0 mi Calm Calm - N/A   Clear
4:55 AM 21.2 °F - 14.0 °F 74% 30.39 in 10.0 mi Calm Calm - N/A   Clear
5:15 AM 21.2 °F - 15.8 °F 80% 30.38 in 10.0 mi Calm Calm - N/A   Clear
5:35 AM 21.2 °F - 15.8 °F 80% 30.38 in 10.0 mi Calm Calm - N/A   Clear
5:55 AM 21.2 °F - 15.8 °F 80% 30.38 in 10.0 mi Calm Calm - N/A   Clear
6:15 AM 21.2 °F - 15.8 °F 80% 30.38 in 10.0 mi Calm Calm - N/A   Clear
6:35 AM 21.2 °F - 15.8 °F 80% 30.40 in 10.0 mi Calm Calm - N/A   Clear
6:55 AM 19.4 °F - 17.6 °F 93% 30.40 in 10.0 mi Calm Calm - N/A   Clear
7:15 AM 19.4 °F - 17.6 °F 93% 30.41 in 10.0 mi Calm Calm - N/A   Clear
7:35 AM 21.2 °F - 17.6 °F 86% 30.41 in 10.0 mi Calm Calm - N/A   Clear
7:55 AM 21.2 °F - 19.4 °F 93% 30.41 in 10.0 mi Calm Calm - N/A   Clear
8:15 AM 23.0 °F - 21.2 °F 93% 30.41 in 10.0 mi Calm Calm - N/A   Clear
8:35 AM 26.6 °F 22.6 °F 21.2 °F 80% 30.41 in 10.0 mi NE 3.5 mph - N/A   Clear
8:55 AM 28.4 °F 22.2 °F 21.2 °F 74% 30.41 in 10.0 mi ENE 5.8 mph - N/A   Clear
9:15 AM 32.0 °F 24.2 °F 14.0 °F 48% 30.41 in 10.0 mi SE 9.2 mph - N/A   Clear
9:35 AM 32.0 °F 22.1 °F 14.0 °F 48% 30.40 in 10.0 mi East 13.8 mph 24.2 mph N/A   Clear
9:55 AM 32.0 °F 22.5 °F 12.2 °F 44% 30.39 in 10.0 mi East 12.7 mph 19.6 mph N/A   Clear
10:15 AM 33.8 °F 25.3 °F 10.4 °F 38% 30.39 in 10.0 mi ESE 11.5 mph 23.0 mph N/A   Clear
10:35 AM 35.6 °F 27.5 °F 10.4 °F 35% 30.38 in 10.0 mi SE 11.5 mph 18.4 mph N/A   Clear
10:55 AM 35.6 °F 31.7 °F 8.6 °F 33% 30.37 in 10.0 mi ESE 4.6 mph 18.4 mph N/A   Clear
11:15 AM 37.4 °F 29.8 °F 8.6 °F 30% 30.35 in 10.0 mi ESE 11.5 mph 25.3 mph N/A   Clear
11:35 AM 37.4 °F 31.4 °F 8.6 °F 30% 30.34 in 10.0 mi SE 8.1 mph 19.6 mph N/A   Clear
11:55 AM 39.2 °F 35.0 °F 8.6 °F 28% 30.33 in 10.0 mi SSE 5.8 mph 24.2 mph N/A   Clear
12:15 PM 42.8 °F 38.0 °F 8.6 °F 25% 30.31 in 10.0 mi East 8.1 mph - N/A   Clear
12:35 PM 42.8 °F 35.4 °F 8.6 °F 25% 30.28 in 10.0 mi South 15.0 mph 24.2 mph N/A   Clear
12:55 PM 44.6 °F 37.8 °F 8.6 °F 23% 30.26 in 10.0 mi SE 15.0 mph 21.9 mph N/A   Clear
1:15 PM 46.4 °F 38.7 °F 8.6 °F 22% 30.24 in 10.0 mi SW 20.7 mph 29.9 mph N/A   Clear
1:35 PM 46.4 °F 38.1 °F 8.6 °F 22% 30.22 in 10.0 mi South 24.2 mph 29.9 mph N/A   Clear
1:55 PM 46.4 °F 39.0 °F 8.6 °F 22% 30.21 in 10.0 mi South 19.6 mph 27.6 mph N/A   Clear
2:15 PM 48.2 °F - 8.6 °F 20% 30.20 in 10.0 mi SSW 20.7 mph 44.9 mph N/A   Clear
2:35 PM 48.2 °F - 10.4 °F 22% 30.19 in 10.0 mi SSW 21.9 mph 34.5 mph N/A   Clear
2:55 PM 48.2 °F - 10.4 °F 22% 30.19 in 10.0 mi SW 13.8 mph 31.1 mph N/A   Partly Cloudy
3:15 PM 48.2 °F - 10.4 °F 22% 30.18 in 10.0 mi SW 21.9 mph 34.5 mph N/A   Mostly Cloudy
3:35 PM 50.0 °F - 12.2 °F 22% 30.17 in 10.0 mi SSW 12.7 mph 21.9 mph N/A   Scattered Clouds
3:55 PM 50.0 °F - 10.4 °F 20% 30.16 in 10.0 mi SW 19.6 mph 33.4 mph N/A   Clear
4:15 PM 50.0 °F - 12.2 °F 22% 30.15 in 10.0 mi SSW 23.0 mph 36.8 mph N/A   Clear
4:35 PM 50.0 °F - 14.0 °F 24% 30.14 in 10.0 mi SW 13.8 mph 29.9 mph N/A   Clear
4:55 PM 48.2 °F - 14.0 °F 25% 30.14 in 10.0 mi SSW 20.7 mph 26.5 mph N/A   Clear
5:15 PM 48.2 °F - 14.0 °F 25% 30.14 in 10.0 mi SSW 10.4 mph - N/A   Partly Cloudy
5:35 PM 46.4 °F 41.9 °F 15.8 °F 29% 30.12 in 10.0 mi SSW 9.2 mph - N/A   Mostly Cloudy
5:55 PM 46.4 °F 42.4 °F 17.6 °F 32% 30.12 in 10.0 mi South 8.1 mph 18.4 mph N/A   Overcast
6:35 PM 44.6 °F 40.7 °F 19.4 °F 37% 30.10 in 10.0 mi South 6.9 mph - N/A   Mostly Cloudy
6:55 PM 44.6 °F 39.7 °F 19.4 °F 37% 30.10 in 10.0 mi SSW 9.2 mph - N/A   Scattered Clouds
7:15 PM 44.6 °F 40.7 °F 21.2 °F 39% 30.09 in 10.0 mi SSW 6.9 mph - N/A   Scattered Clouds
7:35 PM 44.6 °F 41.4 °F 21.2 °F 39% 30.09 in 10.0 mi SW 5.8 mph - N/A   Mostly Cloudy
7:55 PM 44.6 °F 38.8 °F 21.2 °F 39% 30.10 in 10.0 mi West 11.5 mph - N/A   Mostly Cloudy
8:15 PM 44.6 °F 38.4 °F 23.0 °F 43% 30.10 in 10.0 mi WSW 12.7 mph 33.4 mph N/A   Mostly Cloudy
8:35 PM 44.6 °F 40.2 °F 23.0 °F 43% 30.10 in 10.0 mi West 8.1 mph - N/A   Partly Cloudy
8:55 PM 46.4 °F 36.5 °F 26.6 °F 46% 30.11 in 10.0 mi WSW 34.5 mph 50.6 mph N/A Rain Light Rain
9:15 PM 44.6 °F 35.1 °F 32.0 °F 61% 30.12 in 10.0 mi West 27.6 mph 52.9 mph N/A Rain Light Rain
9:35 PM 42.8 °F 31.9 °F 35.6 °F 76% 30.12 in 8.0 mi WSW 32.2 mph 56.4 mph 0.01 in Rain Light Rain
9:55 PM 41.0 °F 33.1 °F 37.4 °F 87% 30.11 in 10.0 mi West 15.0 mph 24.2 mph 0.01 in   Mostly Cloudy
10:15 PM 41.0 °F 34.7 °F 37.4 °F 87% 30.09 in 10.0 mi WSW 10.4 mph 24.2 mph N/A   Partly Cloudy
10:35 PM 39.2 °F 33.6 °F 37.4 °F 93% 30.08 in 10.0 mi WNW 8.1 mph - N/A   Partly Cloudy
10:55 PM 39.2 °F 33.6 °F 37.4 °F 93% 30.09 in 10.0 mi West 8.1 mph - N/A   Scattered Clouds
11:15 PM 39.2 °F 33.6 °F 37.4 °F 93% 30.09 in 10.0 mi WSW 8.1 mph 17.3 mph N/A   Mostly Cloudy
11:35 PM 39.2 °F 34.2 °F 37.4 °F 93% 30.07 in 10.0 mi WNW 6.9 mph - N/A   Overcast
11:55 PM 39.2 °F 37.0 °F 35.6 °F 87% 30.05 in 10.0 mi West 3.5 mph - N/A   Mostly Cloudy